TimeMST,TemperatureF,Dew PointF,Humidity,Sea Level PressureIn,VisibilityMPH,Wind Direction,Wind SpeedMPH,Gust SpeedMPH,PrecipitationIn,Events,Conditions,WindDirDegrees,DateUTC
12:53 AM,21.0,12.9,71,30.43,10.0,NW,6.9,-,N/A,,Clear,320,2013-03-01 07:53:00
1:53 AM,24.1,15.1,69,30.39,10.0,WNW,10.4,-,N/A,,Clear,300,2013-03-01 08:53:00
2:53 AM,21.0,12.9,71,30.41,10.0,WSW,4.6,-,N/A,,Clear,240,2013-03-01 09:53:00
3:53 AM,19.0,10.9,71,30.43,10.0,Calm,Calm,-,N/A,,Clear,0,2013-03-01 10:53:00
4:53 AM,21.0,12.0,68,30.42,10.0,West,13.8,-,N/A,,Clear,260,2013-03-01 11:53:00
5:53 AM,15.1,10.0,80,30.48,10.0,WSW,11.5,-,N/A,,Clear,250,2013-03-01 12:53:00
6:53 AM,12.9,8.1,81,30.53,10.0,WSW,5.8,-,N/A,,Clear,250,2013-03-01 13:53:00
7:53 AM,16.0,10.0,77,30.57,10.0,West,11.5,-,N/A,,Clear,260,2013-03-01 14:53:00
8:53 AM,32.0,17.1,54,30.51,10.0,WNW,10.4,-,N/A,,Clear,300,2013-03-01 15:53:00
9:53 AM,36.0,21.0,55,30.48,10.0,WNW,8.1,-,N/A,,Clear,300,2013-03-01 16:53:00
10:53 AM,37.9,25.0,60,30.46,10.0,NNW,9.2,-,N/A,,Clear,340,2013-03-01 17:53:00
11:53 AM,39.9,25.0,55,30.47,10.0,NNE,6.9,-,N/A,,Clear,20,2013-03-01 18:53:00
12:53 PM,41.0,26.1,55,30.45,10.0,NNE,9.2,-,N/A,,Clear,20,2013-03-01 19:53:00
1:53 PM,42.1,27.0,55,30.39,10.0,NNE,12.7,-,N/A,,Clear,30,2013-03-01 20:53:00
3:53 PM,43.0,26.1,51,30.39,10.0,NNE,15.0,-,N/A,,Clear,20,2013-03-01 22:53:00
4:53 PM,43.0,27.0,53,30.38,10.0,NE,8.1,-,N/A,,Clear,40,2013-03-01 23:53:00
5:53 PM,39.9,27.0,60,30.42,10.0,NNW,5.8,-,N/A,,Clear,330,2013-03-02 00:53:00
7:53 PM,30.9,24.1,76,30.49,10.0,Calm,Calm,-,N/A,,Clear,0,2013-03-02 02:53:00
8:53 PM,26.1,21.9,84,30.46,10.0,Calm,Calm,-,N/A,,Clear,0,2013-03-02 03:53:00
9:53 PM,25.0,21.0,85,30.44,10.0,Calm,Calm,-,N/A,,Clear,0,2013-03-02 04:53:00
10:53 PM,27.0,23.0,85,30.43,10.0,West,6.9,-,N/A,,Clear,270,2013-03-02 05:53:00
11:53 PM,24.1,21.0,88,30.43,10.0,West,5.8,-,N/A,,Clear,260,2013-03-02 06:53:00